Шелек

Казахстан     43°35′51″N   78°15′02″E
темп.,
°C
ветер,
м/с
пор.,
м/с
влажн.,
%
обл.,
%
осадки,
мм/ч
давл.,
гПа
погр.,
м
24 октября, вс
вс2400:00+3в35590 0.0 103593
03:00+3в35580 0.0 103485
06:00+3в35530 0.0 1033100
09:00+5всв46460 0.0 1031248
12:00+10всв66320 0.0 1027706
15:00+12всв66280 0.0 1024727
18:00+8в57400 0.0 1024151
21:00+7вюв47440 0.0 1023121
25 октября, пн
пн2500:00+7юв45380 0.0 102188
03:00+6юв34320 0.0 101960
06:00+6юв33310 0.0 101931
09:00+9в24290 0.0 1018129
12:00+14св54200 0.0 1015528
15:00+15ссв32190 0.0 1014531
18:00+10юз11280 0.0 101611
21:00+10ююз22300 0.0 101712
26 октября, вт
вт2600:00+9ю11320 0.0 101710
03:00+9ююв11310 0.0 101710
06:00+8ю11320 0.0 101811
09:00+12ю01290 0.0 101921
12:00+15ссв21230 0.0 1019433
15:00+16с21190 0.0 1018610
18:00+12юз22270 0.0 102012
21:00+10юз22290 0.0 102113
27 октября, ср
ср2700:00+10ю11275 0.0 102111
03:00+8ю112970 0.0 102210
06:00+8ююв11315 0.0 102210
09:00+10всв002953 0.0 102342
12:00+12ссз212668 0.0 1023480
15:00+13сз2224100 0.0 1023646
18:00+11зюз2231100 0.0 102420
21:00+10юз3332100 0.0 102546
28 октября, чт
чт2800:00+10юз3430100 0.0 102552
03:00+10юз3332100 0.0 102546
06:00+9юз2232100 0.0 102522
09:00+11зюз1231100 0.0 1026149
12:00+12сз333078 0.0 1026714
15:00+12з5536100 0.0 1026968
18:00+10зюз4645100 0.0 1026244
21:00+9ююз225091 0.0 102732